Location: Le Petit-Vavre
(46.5081°N, 1.5239°E)
Time: 18:13:26
(UTC+00:00)

Cosmos 2341 Rocket - Pass Details

Date: 03 March 2021
Orbit: 968 x 1005 km, 82.9° (Epoch: 15 April)

Event Time Altitude Azimuth Distance (km) Brightness Sun altitude
Rises 18:29:12 0° 160° (SSE) 3,699 6.8 -8.8°
Reaches altitude 10° 18:31:55 10° 152° (SSE) 2,749 6.1 -9.2°
Maximum altitude 18:37:35 37° 88° (E) 1,491 4.5 -10.2°
Drops below altitude 10° 18:43:15 10° 23° (NNE) 2,742 6.1 -11.2°
Sets 18:45:56 0° 16° (NNE) 3,689 6.9 -11.6°
